| time (UTC) | temp F | wind direction | speed MPH | gust MPH | rain 1hr in | rain 24hr in | rain mn in | humidity % | barometer mb |
| 20260902170008 | 90 | 96 | 9.0 | 17.0 | 0.00 | 0.00 | 0.00 | 56 | 1018.0 |
| 20260902164509 | 92 | 102 | 7.0 | 17.0 | 0.00 | 0.00 | 0.00 | 54 | 1018.2 |
| 20260902163020 | 90 | 99 | 11.0 | 18.0 | 0.00 | 0.00 | 0.00 | 55 | 1018.2 |
| 20260902161526 | 91 | 86 | 7.0 | 14.0 | 0.00 | 0.00 | 0.00 | 57 | 1018.2 |
| 20260902160012 | 90 | 51 | 9.0 | 13.0 | 0.00 | 0.00 | 0.00 | 59 | 1018.3 |
| 20260902154513 | 89 | 130 | 8.0 | 9.0 | 0.00 | 0.00 | 0.00 | 61 | 1018.4 |
| 20260902153039 | 87 | 112 | 10.0 | 14.0 | 0.00 | 0.00 | 0.00 | 62 | 1018.3 |
| 20260902151520 | 87 | 128 | 4.0 | 11.0 | 0.00 | 0.00 | 0.00 | 64 | 1018.3 |
| 20260902150027 | 86 | 102 | 6.0 | 11.0 | 0.00 | 0.00 | 0.00 | 67 | 1018.2 |
| 20260902144513 | 84 | 81 | 7.0 | 9.0 | 0.00 | 0.00 | 0.00 | 69 | 1018.2 |
| 20260902143015 | 84 | 66 | 5.0 | 10.0 | 0.00 | 0.00 | 0.00 | 72 | 1018.2 |
| 20260902141521 | 83 | 65 | 6.0 | 9.0 | 0.00 | 0.00 | 0.00 | 73 | 1018.3 |
| 20260902140019 | 82 | 38 | 6.0 | 9.0 | 0.00 | 0.00 | 0.00 | 74 | 1018.3 |
| 20260902134528 | 81 | 77 | 5.0 | 9.0 | 0.00 | 0.00 | 0.00 | 76 | 1018.3 |
| 20260902133040 | 80 | 79 | 5.0 | 10.0 | 0.00 | 0.00 | 0.00 | 77 | 1018.3 |
| 20260902131517 | 79 | 91 | 5.0 | 8.0 | 0.00 | 0.00 | 0.00 | 78 | 1018.3 |
| 20260902130023 | 79 | 50 | 5.0 | 8.0 | 0.00 | 0.00 | 0.00 | 78 | 1018.2 |
| 20260902124522 | 78 | 79 | 5.0 | 7.0 | 0.00 | 0.00 | 0.00 | 80 | 1018.2 |
| 20260902123027 | 76 | 95 | 5.0 | 7.0 | 0.00 | 0.00 | 0.00 | 81 | 1018.1 |
| 20260902121534 | 75 | 70 | 4.0 | 5.0 | 0.00 | 0.00 | 0.00 | 82 | 1017.8 |
| 20260902120032 | 76 | 89 | 2.0 | 5.0 | 0.00 | 0.00 | 0.00 | 81 | 1017.7 |
| 20260902114506 | 76 | 97 | 4.0 | 6.0 | 0.00 | 0.00 | 0.00 | 81 | 1017.6 |
| 20260902113016 | 76 | 86 | 4.0 | 6.0 | 0.00 | 0.00 | 0.00 | 80 | 1017.6 |
| 20260902111504 | 76 | 92 | 4.0 | 7.0 | 0.00 | 0.00 | 0.00 | 80 | 1017.6 |
| 20260902110011 | 76 | 96 | 6.0 | 8.0 | 0.00 | 0.00 | 0.00 | 79 | 1017.6 |
| 20260902104524 | 77 | 94 | 5.0 | 7.0 | 0.00 | 0.00 | 0.00 | 78 | 1017.6 |
| 20260902103005 | 77 | 103 | 5.0 | 7.0 | 0.00 | 0.00 | 0.00 | 78 | 1017.6 |
| 20260902101509 | 77 | 107 | 4.0 | 5.0 | 0.00 | 0.00 | 0.00 | 77 | 1017.4 |
| 20260902100015 | 77 | 94 | 4.0 | 5.0 | 0.00 | 0.00 | 0.00 | 77 | 1017.3 |
| 20260902094508 | 77 | 95 | 3.0 | 5.0 | 0.00 | 0.00 | 0.00 | 76 | 1017.5 |
| 20260902093020 | 78 | 97 | 3.0 | 6.0 | 0.00 | 0.00 | 0.00 | 75 | 1017.3 |
| 20260902091501 | 78 | 93 | 4.0 | 5.0 | 0.00 | 0.00 | 0.00 | 73 | 1017.2 |
| 20260902090015 | 78 | 105 | 2.0 | 4.0 | 0.00 | 0.00 | 0.00 | 73 | 1017.3 |
| 20260902084516 | 78 | 113 | 3.0 | 5.0 | 0.00 | 0.00 | 0.00 | 73 | 1017.3 |
| 20260902083008 | 79 | 116 | 4.0 | 5.0 | 0.00 | 0.00 | 0.00 | 72 | 1017.3 |
| 20260902081502 | 79 | 112 | 3.0 | 4.0 | 0.00 | 0.00 | 0.00 | 71 | 1017.1 |
| 20260902080030 | 79 | 109 | 4.0 | 8.0 | 0.00 | 0.00 | 0.00 | 71 | 1017.2 |
| 20260902074515 | 79 | 125 | 2.0 | 3.0 | 0.00 | 0.00 | 0.00 | 71 | 1017.4 |
| 20260902073017 | 80 | 127 | 1.0 | 3.0 | 0.00 | 0.00 | 0.00 | 69 | 1017.5 |
| 20260902071507 | 81 | 127 | 1.0 | 2.0 | 0.00 | 0.00 | 0.00 | 68 | 1017.4 |
| 20260902070023 | 81 | 127 | 2.0 | 3.0 | 0.00 | 0.00 | 0.00 | 68 | 1017.5 |
| 20260902064518 | 81 | 127 | 1.0 | 4.0 | 0.00 | 0.00 | 0.00 | 67 | 1017.5 |
| 20260902063012 | 81 | 121 | 3.0 | 6.0 | 0.00 | 0.00 | 0.00 | 68 | 1017.5 |
| 20260902061521 | 82 | 135 | 3.0 | 7.0 | 0.00 | 0.00 | 0.00 | 68 | 1017.7 |
| 20260902060028 | 82 | 141 | 3.0 | 6.0 | 0.00 | 0.00 | 0.00 | 67 | 1017.7 |
| 20260902054515 | 82 | 143 | 4.0 | 6.0 | 0.00 | 0.00 | 0.00 | 67 | 1017.6 |
| 20260902053012 | 82 | 152 | 3.0 | 4.0 | 0.00 | 0.00 | 0.00 | 66 | 1017.5 |
| 20260902051512 | 83 | 151 | 3.0 | 5.0 | 0.00 | 0.00 | 0.00 | 65 | 1017.4 |
| 20260902050023 | 83 | 151 | 4.0 | 6.0 | 0.00 | 0.00 | 0.00 | 64 | 1017.5 |
| 20260902044529 | 84 | 165 | 4.0 | 6.0 | 0.00 | 0.00 | 0.00 | 64 | 1017.3 |
| 20260902043009 | 84 | 153 | 3.0 | 6.0 | 0.00 | 0.00 | 0.00 | 63 | 1017.3 |
| 20260902041533 | 85 | 158 | 4.0 | 6.0 | 0.00 | 0.00 | 0.00 | 62 | 1017.1 |
| 20260902040018 | 85 | 145 | 4.0 | 7.0 | 0.00 | 0.00 | 0.00 | 60 | 1017.2 |
| 20260902034521 | 86 | 148 | 5.0 | 7.0 | 0.00 | 0.00 | 0.00 | 58 | 1017.2 |
| 20260902033027 | 86 | 148 | 3.0 | 6.0 | 0.00 | 0.00 | 0.00 | 56 | 1017.1 |
| 20260902031511 | 86 | 151 | 3.0 | 6.0 | 0.00 | 0.00 | 0.00 | 54 | 1016.9 |
| 20260902030016 | 87 | 159 | 5.0 | 7.0 | 0.00 | 0.00 | 0.00 | 53 | 1016.8 |
| 20260902024523 | 88 | 139 | 6.0 | 12.0 | 0.00 | 0.00 | 0.00 | 51 | 1016.6 |
| 20260902023018 | 88 | 118 | 4.0 | 9.0 | 0.00 | 0.00 | 0.00 | 49 | 1016.4 |
| 20260902021531 | 89 | 117 | 4.0 | 10.0 | 0.00 | 0.00 | 0.00 | 49 | 1016.1 |
| 20260902020019 | 89 | 123 | 5.0 | 9.0 | 0.00 | 0.00 | 0.00 | 48 | 1015.9 |
| 20260902014525 | 90 | 127 | 5.0 | 8.0 | 0.00 | 0.00 | 0.00 | 47 | 1015.8 |
| 20260902013032 | 90 | 113 | 5.0 | 9.0 | 0.00 | 0.00 | 0.00 | 46 | 1015.7 |
| 20260902011517 | 91 | 98 | 6.0 | 9.0 | 0.00 | 0.00 | 0.00 | 45 | 1015.5 |
| 20260902010033 | 92 | 120 | 6.0 | 9.0 | 0.00 | 0.00 | 0.00 | 45 | 1015.3 |
| 20260902004534 | 93 | 94 | 5.0 | 11.0 | 0.00 | 0.00 | 0.00 | 43 | 1015.2 |
| 20260902003024 | 93 | 105 | 6.0 | 10.0 | 0.00 | 0.00 | 0.00 | 42 | 1015.0 |
| 20260902001524 | 94 | 117 | 8.0 | 14.0 | 0.00 | 0.00 | 0.00 | 41 | 1015.0 |
| 20260902000017 | 95 | 115 | 7.0 | 10.0 | 0.00 | 0.00 | 0.00 | 40 | 1015.0 |
| 20260901234509 | 96 | 101 | 6.0 | 12.0 | 0.00 | 0.00 | 0.00 | 40 | 1015.0 |
| 20260901233005 | 97 | 68 | 7.0 | 11.0 | 0.00 | 0.00 | 0.00 | 40 | 1015.0 |
| 20260901231520 | 97 | 79 | 9.0 | 18.0 | 0.00 | 0.00 | 0.00 | 40 | 1015.2 |
| 20260901230043 | 98 | 46 | 6.0 | 16.0 | 0.00 | 0.00 | 0.00 | 41 | 1015.0 |
| 20260901224518 | 97 | 79 | 11.0 | 15.0 | 0.00 | 0.00 | 0.00 | 41 | 1015.2 |
| 20260901223025 | 98 | 68 | 10.0 | 18.0 | 0.00 | 0.00 | 0.00 | 41 | 1015.2 |
| 20260901221524 | 98 | 46 | 9.0 | 15.0 | 0.00 | 0.00 | 0.00 | 42 | 1015.3 |
| 20260901220033 | 97 | 92 | 9.0 | 14.0 | 0.00 | 0.00 | 0.00 | 42 | 1015.4 |
| 20260901214532 | 98 | 83 | 10.0 | 15.0 | 0.00 | 0.00 | 0.00 | 41 | 1015.5 |
| 20260901213009 | 98 | 88 | 13.0 | 18.0 | 0.00 | 0.00 | 0.00 | 40 | 1015.7 |
| 20260901211513 | 99 | 72 | 7.0 | 12.0 | 0.00 | 0.00 | 0.00 | 41 | 1015.8 |
| 20260901210037 | 97 | 92 | 10.0 | 14.0 | 0.00 | 0.00 | 0.00 | 41 | 1016.1 |
| 20260901204517 | 103 | 139 | 3.0 | 11.0 | 0.00 | 0.00 | 0.00 | 36 | 1016.1 |
| 20260901203042 | 97 | 125 | 7.0 | 16.0 | 0.00 | 0.00 | 0.00 | 41 | 1016.2 |
| 20260901201510 | 96 | 95 | 5.0 | 10.0 | 0.00 | 0.00 | 0.00 | 43 | 1016.4 |
| 20260901200023 | 96 | 91 | 7.0 | 15.0 | 0.00 | 0.00 | 0.00 | 42 | 1016.5 |
| 20260901194524 | 99 | 53 | 11.0 | 15.0 | 0.00 | 0.00 | 0.00 | 41 | 1016.6 |
| 20260901193016 | 98 | 59 | 7.0 | 12.0 | 0.00 | 0.00 | 0.00 | 41 | 1016.8 |
| 20260901191528 | 98 | 49 | 8.0 | 13.0 | 0.00 | 0.00 | 0.00 | 42 | 1017.1 |
| 20260901190048 | 100 | 64 | 7.0 | 12.0 | 0.00 | 0.00 | 0.00 | 40 | 1017.3 |
| 20260901184519 | 97 | 115 | 2.0 | 12.0 | 0.00 | 0.00 | 0.00 | 43 | 1017.6 |
| 20260901183029 | 97 | 39 | 7.0 | 11.0 | 0.00 | 0.00 | 0.00 | 43 | 1017.8 |
| 20260901181515 | 96 | 33 | 7.0 | 10.0 | 0.00 | 0.00 | 0.00 | 44 | 1017.9 |
| 20260901180027 | 95 | 72 | 2.0 | 10.0 | 0.00 | 0.00 | 0.00 | 46 | 1018.1 |
| 20260901174520 | 94 | 114 | 4.0 | 6.0 | 0.00 | 0.00 | 0.00 | 48 | 1018.5 |
| 20260901173018 | 93 | 84 | 5.0 | 11.0 | 0.00 | 0.00 | 0.00 | 48 | 1018.8 |
| 20260901171526 | 93 | 91 | 6.0 | 10.0 | 0.00 | 0.00 | 0.00 | 49 | 1019.0 |